Location: Eaton Estates
(41.3089°N, 82.0057°W)
Time: 07:29:41
(UTC+00:00)

NOSS 2-3 (E) - Pass Details

Date: 17 June 2021
Orbit: 555 x 1655 km, 63.4° (Epoch: 23 July)

Event Time Altitude Azimuth Distance (km) Brightness Sun altitude
Exits shadow 06:29:01 66° 292° (WNW) 649 3.6 -23.8°
Maximum altitude 06:29:10 67° 307° (NW) 648 3.6 -23.8°
Drops below altitude 10° 06:33:47 10° 31° (NNE) 2,114 7.3 -23.6°
Sets 06:36:22 0° 34° (NE) 3,169 8.4 -23.4°
